| time (UTC) | temp F | wind direction | speed knots | gust knots | rain 1hr in | rain 24hr in | rain mn in | humidity % | barometer mb |
| 20260507013043 | 68 | 227 | 0.0 | 4.3 | 0.00 | 0.00 | 0.00 | 77 | 1009.8 |
| 20260507011553 | 68 | 227 | 1.7 | 4.3 | 0.00 | 0.00 | 0.00 | 76 | 1009.9 |
| 20260507010045 | 69 | 234 | 2.6 | 6.1 | 0.00 | 0.00 | 0.00 | 76 | 1009.8 |
| 20260507004542 | 69 | 232 | 1.7 | 4.3 | 0.00 | 0.00 | 0.00 | 75 | 1009.8 |
| 20260507003043 | 70 | 239 | 3.5 | 8.7 | 0.00 | 0.00 | 0.00 | 74 | 1009.8 |
| 20260507001555 | 70 | 242 | 0.9 | 5.2 | 0.00 | 0.00 | 0.00 | 73 | 1009.5 |
| 20260507000046 | 70 | 218 | 2.6 | 7.0 | 0.00 | 0.00 | 0.00 | 73 | 1009.4 |
| 20260506234546 | 71 | 219 | 3.5 | 7.8 | 0.00 | 0.00 | 0.00 | 72 | 1009.4 |
| 20260506233039 | 71 | 234 | 4.3 | 8.7 | 0.00 | 0.00 | 0.00 | 71 | 1009.4 |
| 20260506231542 | 71 | 227 | 3.5 | 8.7 | 0.00 | 0.00 | 0.00 | 70 | 1009.4 |
| 20260506230048 | 72 | 269 | 4.3 | 13.9 | 0.00 | 0.00 | 0.00 | 70 | 1009.3 |
| 20260506224543 | 72 | 210 | 4.3 | 13.9 | 0.00 | 0.00 | 0.00 | 70 | 1009.4 |
| 20260506223043 | 72 | 214 | 6.1 | 18.2 | 0.00 | 0.00 | 0.00 | 69 | 1009.2 |
| 20260506221543 | 72 | 196 | 6.1 | 13.9 | 0.00 | 0.00 | 0.00 | 70 | 1009.2 |
| 20260506220056 | 72 | 244 | 5.2 | 18.2 | 0.00 | 0.00 | 0.00 | 70 | 1009.2 |
| 20260506214538 | 72 | 252 | 8.7 | 17.4 | 0.00 | 0.00 | 0.00 | 70 | 1009.0 |
| 20260506213044 | 72 | 215 | 9.6 | 18.2 | 0.00 | 0.00 | 0.00 | 70 | 1009.0 |
| 20260506211544 | 71 | 219 | 8.7 | 16.5 | 0.00 | 0.00 | 0.00 | 71 | 1008.9 |
| 20260506210046 | 71 | 206 | 5.2 | 19.1 | 0.00 | 0.00 | 0.00 | 71 | 1008.9 |
| 20260506204550 | 71 | 182 | 10.4 | 18.2 | 0.00 | 0.00 | 0.00 | 71 | 1008.8 |
| 20260506203130 | 72 | 252 | 7.8 | 20.9 | 0.00 | 0.00 | 0.00 | 70 | 1008.3 |
| 20260506201546 | 72 | 208 | 9.6 | 21.7 | 0.00 | 0.00 | 0.00 | 69 | 1008.6 |
| 20260506200048 | 72 | 200 | 9.6 | 20.9 | 0.00 | 0.00 | 0.00 | 70 | 1008.9 |
| 20260506194541 | 72 | 212 | 11.3 | 20.0 | 0.00 | 0.00 | 0.00 | 69 | 1009.0 |
| 20260506193041 | 72 | 182 | 7.0 | 25.2 | 0.00 | 0.00 | 0.00 | 69 | 1009.0 |
| 20260506191551 | 72 | 242 | 9.6 | 24.3 | 0.00 | 0.00 | 0.00 | 68 | 1009.5 |
| 20260506190050 | 71 | 184 | 10.4 | 20.0 | 0.00 | 0.00 | 0.00 | 69 | 1010.0 |
| 20260506184554 | 71 | 250 | 9.6 | 19.1 | 0.00 | 0.00 | 0.00 | 71 | 1010.0 |
| 20260506183044 | 70 | 221 | 7.0 | 20.0 | 0.00 | 0.00 | 0.00 | 73 | 1010.0 |
| 20260506181542 | 69 | 194 | 13.0 | 23.5 | 0.00 | 0.00 | 0.00 | 73 | 1010.3 |
| 20260506180045 | 69 | 223 | 10.4 | 23.5 | 0.00 | 0.00 | 0.00 | 75 | 1010.7 |
| 20260506174538 | 69 | 202 | 10.4 | 23.5 | 0.00 | 0.00 | 0.00 | 73 | 1010.3 |
| 20260506173052 | 70 | 231 | 7.0 | 26.1 | 0.00 | 0.00 | 0.00 | 73 | 1010.4 |
| 20260506171543 | 69 | 229 | 11.3 | 21.7 | 0.00 | 0.00 | 0.00 | 72 | 1010.9 |
| 20260506170046 | 69 | 216 | 10.4 | 21.7 | 0.00 | 0.00 | 0.00 | 71 | 1011.0 |
| 20260506164547 | 70 | 211 | 10.4 | 21.7 | 0.00 | 0.00 | 0.00 | 69 | 1011.4 |
| 20260506163056 | 72 | 206 | 8.7 | 26.9 | 0.00 | 0.00 | 0.00 | 63 | 1011.7 |
| 20260506161542 | 73 | 207 | 10.4 | 21.7 | 0.00 | 0.00 | 0.00 | 61 | 1011.8 |
| 20260506160040 | 74 | 260 | 8.7 | 20.0 | 0.00 | 0.00 | 0.00 | 59 | 1011.8 |
| 20260506154552 | 73 | 213 | 10.4 | 24.3 | 0.00 | 0.00 | 0.00 | 59 | 1011.9 |
| 20260506153042 | 73 | 239 | 9.6 | 26.9 | 0.00 | 0.00 | 0.00 | 60 | 1011.7 |
| 20260506151544 | 72 | 211 | 9.6 | 19.1 | 0.00 | 0.00 | 0.00 | 62 | 1011.9 |
| 20260506150042 | 73 | 223 | 10.4 | 21.7 | 0.00 | 0.00 | 0.00 | 60 | 1011.9 |
| 20260506144547 | 73 | 229 | 7.0 | 21.7 | 0.00 | 0.00 | 0.00 | 61 | 1012.0 |
| 20260506143042 | 73 | 257 | 10.4 | 21.7 | 0.00 | 0.00 | 0.00 | 60 | 1011.9 |
| 20260506141549 | 73 | 184 | 12.2 | 22.6 | 0.00 | 0.00 | 0.00 | 60 | 1011.8 |
| 20260506140049 | 72 | 194 | 7.8 | 22.6 | 0.00 | 0.00 | 0.00 | 62 | 1011.7 |
| 20260506134546 | 72 | 215 | 10.4 | 23.5 | 0.00 | 0.00 | 0.00 | 62 | 1011.9 |
| 20260506133048 | 71 | 239 | 10.4 | 21.7 | 0.00 | 0.00 | 0.00 | 63 | 1011.9 |
| 20260506131544 | 70 | 184 | 9.6 | 20.9 | 0.00 | 0.00 | 0.00 | 65 | 1012.2 |
| 20260506130042 | 69 | 208 | 6.1 | 17.4 | 0.00 | 0.00 | 0.00 | 68 | 1012.5 |
| 20260506124546 | 67 | 234 | 7.8 | 17.4 | 0.00 | 0.00 | 0.00 | 71 | 1012.7 |
| 20260506123043 | 67 | 232 | 6.1 | 13.9 | 0.00 | 0.00 | 0.00 | 71 | 1012.5 |
| 20260506121547 | 67 | 217 | 8.7 | 16.5 | 0.00 | 0.00 | 0.00 | 72 | 1012.4 |
| 20260506120047 | 66 | 215 | 7.0 | 13.9 | 0.00 | 0.00 | 0.00 | 74 | 1012.4 |
| 20260506114542 | 65 | 232 | 4.3 | 15.6 | 0.00 | 0.00 | 0.00 | 75 | 1012.4 |
| 20260506113044 | 65 | 198 | 6.1 | 16.5 | 0.00 | 0.00 | 0.00 | 74 | 1012.3 |
| 20260506111542 | 65 | 228 | 7.0 | 13.9 | 0.00 | 0.00 | 0.00 | 75 | 1012.3 |
| 20260506110043 | 63 | 190 | 7.0 | 11.3 | 0.00 | 0.00 | 0.00 | 76 | 1012.3 |
| 20260506104547 | 63 | 169 | 5.2 | 15.6 | 0.00 | 0.00 | 0.00 | 77 | 1012.5 |
| 20260506103043 | 62 | 198 | 5.2 | 11.3 | 0.00 | 0.00 | 0.00 | 78 | 1012.6 |
| 20260506101544 | 62 | 218 | 5.2 | 13.9 | 0.00 | 0.00 | 0.00 | 79 | 1012.5 |
| 20260506100046 | 62 | 188 | 5.2 | 9.6 | 0.00 | 0.00 | 0.00 | 79 | 1012.3 |
| 20260506094543 | 62 | 179 | 5.2 | 11.3 | 0.00 | 0.00 | 0.00 | 79 | 1012.4 |
| 20260506093051 | 62 | 182 | 5.2 | 9.6 | 0.00 | 0.00 | 0.00 | 79 | 1012.4 |
| 20260506091544 | 62 | 209 | 4.3 | 10.4 | 0.00 | 0.00 | 0.00 | 79 | 1012.4 |
| 20260506090049 | 62 | 169 | 5.2 | 11.3 | 0.00 | 0.00 | 0.00 | 79 | 1012.4 |
| 20260506084546 | 62 | 171 | 5.2 | 10.4 | 0.00 | 0.00 | 0.00 | 79 | 1012.5 |
| 20260506083047 | 62 | 202 | 5.2 | 10.4 | 0.00 | 0.00 | 0.00 | 79 | 1012.5 |
| 20260506081544 | 62 | 175 | 6.1 | 12.2 | 0.00 | 0.00 | 0.00 | 79 | 1012.6 |
| 20260506073046 | 63 | 190 | 5.2 | 11.3 | 0.00 | 0.00 | 0.00 | 79 | 1012.5 |
| 20260506071544 | 63 | 205 | 5.2 | 12.2 | 0.00 | 0.00 | 0.00 | 78 | 1012.4 |
| 20260506061548 | 65 | 176 | 7.0 | 13.0 | 0.00 | 0.00 | 0.00 | 75 | 1012.7 |
| 20260506044544 | 66 | 209 | 7.0 | 18.2 | 0.00 | 0.00 | 0.00 | 73 | 1013.2 |
| 20260506043043 | 66 | 189 | 6.1 | 16.5 | 0.00 | 0.00 | 0.00 | 73 | 1013.2 |
| 20260506041556 | 67 | 186 | 9.6 | 17.4 | 0.00 | 0.00 | 0.00 | 73 | 1013.3 |
| 20260506040042 | 67 | 183 | 9.6 | 16.5 | 0.00 | 0.00 | 0.00 | 72 | 1013.3 |
| 20260506034551 | 67 | 192 | 8.7 | 21.7 | 0.00 | 0.00 | 0.00 | 72 | 1013.4 |
| 20260506033043 | 67 | 232 | 8.7 | 20.0 | 0.00 | 0.00 | 0.00 | 71 | 1013.4 |
| 20260506031543 | 68 | 205 | 8.7 | 20.0 | 0.00 | 0.00 | 0.00 | 70 | 1013.4 |
| 20260506030043 | 68 | 205 | 7.0 | 17.4 | 0.00 | 0.00 | 0.00 | 70 | 1013.4 |
| 20260506024543 | 68 | 206 | 7.0 | 16.5 | 0.00 | 0.00 | 0.00 | 70 | 1013.4 |
| 20260506023043 | 68 | 188 | 7.8 | 15.6 | 0.00 | 0.00 | 0.00 | 70 | 1013.5 |
| 20260506021544 | 68 | 173 | 7.8 | 19.1 | 0.00 | 0.00 | 0.00 | 69 | 1013.4 |
| 20260506020051 | 68 | 207 | 7.0 | 15.6 | 0.00 | 0.00 | 0.00 | 69 | 1013.4 |
| 20260506014545 | 69 | 192 | 8.7 | 16.5 | 0.00 | 0.00 | 0.00 | 68 | 1013.4 |